Flag for U.S.A. Weather past 2 weeks in Olympia, Washington, U.S.A.

Now
44 °F

Low clouds.


Feels Like: 41 °F
Forecast: 39 / 48 °F
Wind: 6 mph from Northeast

Location: Olympia Airport

Current Time: Jan 31, 2015 at 5:04:34 PM

Latest Report: Jan 31, 2015 at 3:54 PM


Visibility: 8 mi

Pressure: 30.17 "Hg

Humidity: 85%

Dew point: 40 °F

Location of OlympiaLocation

Historic Weather in Olympia — Graph

°F

Olympia temperature yesterday

Maximum temperature yesterday: 42 °F (at 2:54 PM)
Minimum temperature yesterday: 30 °F (at 2:54 AM)
Average temperature yesterday: 37 °F

Past Weeks' High & Low Weather Summary

 TemperatureHumidityPressure
High63 °F (Jan 26, 2:54 PM)100% (Jan 16, 9:00 PM)30.46 "Hg (Jan 16, 9:00 PM)
Low30 °F (Jan 20, 9:54 PM)54% (Jan 26, 1:54 PM)29.61 "Hg (Jan 17, 10:54 PM)
Average44 °F91%30.23 "Hg
* Reported Jan 16 3:54 PM — Jan 31 3:54 PM, Olympia, Weather by CustomWeather, © 2014

Note: Actual official high and low records may vary slightly from our data, if they occured in-between our weather recording intervals... More about our weather records

Advertising

Olympia weather history for previous 24 hours

 ConditionsComfort  
Time TempWeatherWind HumidityBarometerVisibility
3:54 PM
Jan 31
44 °FLow clouds.6 mph85%30.17 "Hg8 mi
2:54 PM44 °FLow clouds.3 mph85%30.18 "Hg7 mi
1:54 PM44 °FFog.6 mph89%30.19 "Hg3 mi
1:01 PM43 °FFog.3 mph93%30.20 "Hg3 mi
12:54 PM43 °FFog.5 mph93%30.20 "Hg2 mi
11:54 AM42 °FFog.6 mph96%30.22 "Hg2 mi
11:00 AM41 °FFog.7 mph96%30.22 "Hg1 mi
9:54 AM40 °FFog.No wind100%30.25 "Hg0 mi
8:54 AM40 °FFog.3 mph100%30.25 "Hg0 mi
7:54 AM40 °FFog.3 mph97%30.24 "Hg1 mi
6:54 AM40 °FFog.3 mph100%30.25 "Hg1 mi
5:54 AM40 °FFog.6 mph97%30.24 "Hg1 mi
4:54 AM39 °FFog.No wind100%30.26 "Hg0 mi
3:54 AM39 °FFog.5 mph100%30.25 "Hg0 mi
2:54 AM38 °FFog.No wind100%30.26 "Hg0 mi
1:54 AM38 °FFog.5 mph97%30.27 "Hg0 mi
12:54 AM38 °FFog.5 mph97%30.26 "Hg0 mi
11:54 PM
Jan 30
38 °FFog.No wind100%30.25 "Hg0 mi
10:54 PM39 °FFog.No wind96%30.26 "Hg0 mi
9:54 PM39 °FFog.3 mph100%30.26 "Hg0 mi
8:54 PM40 °FFog.No wind100%30.27 "Hg0 mi
7:54 PM40 °FFog.6 mph100%30.28 "Hg0 mi
6:54 PM40 °FFog.3 mph97%30.28 "Hg1 mi
6:03 PM41 °FFog.No wind96%30.27 "Hg1 mi
5:54 PM41 °FFog.3 mph96%30.28 "Hg2 mi
Weather by CustomWeather, © 2014

See weather overviewHow to use our weather pages